Satellite: BEESAT-2
Catalog number: 39136
Epoch time: 14001.88947105
Element set: 450
Inclination: 064.8807 deg
RA of node: 303.8897 deg
Eccentricity: 0.0010368
Arg of perigee: 330.0979 deg
Mean anomaly: 029.9549 deg
Mean motion: 15.02126289 rev/day
Decay rate: 5.030e-05 rev/day^2
Epoch rev: 3865
Checksum: 314
Satellite: CAPE-1
Catalog number: 39380
Epoch time: 14002.36934317
Element set: 54
Inclination: 040.5189 deg
RA of node: 358.2202 deg
Eccentricity: 0.0005054
Arg of perigee: 254.3741 deg
Mean anomaly: 105.6508 deg
Mean motion: 15.21276280 rev/day
Decay rate: 4.450e-05 rev/day^2
Epoch rev: 660
Checksum: 258
Satellite: TRLBLAZER
Catalog number: 39382
Epoch time: 14002.33296890
Element set: 58
Inclination: 040.5052 deg
RA of node: 357.8879 deg
Eccentricity: 0.0003104
Arg of perigee: 224.0783 deg
Mean anomaly: 136.0215 deg
Mean motion: 15.23856217 rev/day
Decay rate: 3.1068e-04 rev/day^2
Epoch rev: 659
Checksum: 285
Satellite: TECHEDST3
Catalog number: 39415
Epoch time: 14002.52309271
Element set: 80
Inclination: 051.6401 deg
RA of node: 197.1999 deg
Eccentricity: 0.0011872
Arg of perigee: 240.7640 deg
Mean anomaly: 119.2639 deg
Mean motion: 15.76316036 rev/day
Decay rate: 6.22735e-03 rev/day^2
Epoch rev: 674
Checksum: 290
Satellite: ZACUBE-1
Catalog number: 39417
Epoch time: 14002.74810386
Element set: 131
Inclination: 097.7961 deg
RA of node: 078.9947 deg
Eccentricity: 0.0064748
Arg of perigee: 060.0696 deg
Mean anomaly: 300.6925 deg
Mean motion: 14.77279009 rev/day
Decay rate: 1.346e-05 rev/day^2
Epoch rev: 626
Checksum: 321
Satellite: TRITON-1
Catalog number: 39427
Epoch time: 14002.77036765
Element set: 35
Inclination: 097.7841 deg
RA of node: 078.1649 deg
Eccentricity: 0.0120807
Arg of perigee: 056.7814 deg
Mean anomaly: 304.4905 deg
Mean motion: 14.64698602 rev/day
Decay rate: 1.024e-05 rev/day^2
Epoch rev: 617
Checksum: 303
Satellite: DELFIN3XT
Catalog number: 39428
Epoch time: 14002.77619499
Element set: 38
Inclination: 097.7854 deg
RA of node: 078.0036 deg
Eccentricity: 0.0132285
Arg of perigee: 056.7295 deg
Mean anomaly: 304.6506 deg
Mean motion: 14.62184480 rev/day
Decay rate: 1.660e-05 rev/day^2
Epoch rev: 615
Checksum: 313
Satellite: GOMX-1
Catalog number: 39430
Epoch time: 14002.74439963
Element set: 100
Inclination: 097.7822 deg
RA of node: 077.5813 deg
Eccentricity: 0.0159411
Arg of perigee: 057.1213 deg
Mean anomaly: 304.5213 deg
Mean motion: 14.56155602 rev/day
Decay rate: 9.01e-06 rev/day^2
Epoch rev: 613
Checksum: 262
Satellite: $50SAT
Catalog number: 39436
Epoch time: 14002.61804479
Element set: 41
Inclination: 097.7971 deg
RA of node: 079.3253 deg
Eccentricity: 0.0031204
Arg of perigee: 075.0719 deg
Mean anomaly: 285.3929 deg
Mean motion: 14.84651509 rev/day
Decay rate: 9.350e-05 rev/day^2
Epoch rev: 626
Checksum: 309
Satellite: PUCPSAT-1
Catalog number: 39442
Epoch time: 14002.66775785
Element set: 29
Inclination: 097.7997 deg
RA of node: 079.4224 deg
Eccentricity: 0.0037106
Arg of perigee: 068.9214 deg
Mean anomaly: 291.5981 deg
Mean motion: 14.84858505 rev/day
Decay rate: 2.299e-05 rev/day^2
Epoch rev: 505
Checksum: 339
/EX
1
0